Weather History for Macon, GA

Change the Weather History Date:

Monday, March 18, 2013

  Actual Average Record
Temperature  
Mean Temperature 64 °F 57 °F  
Max Temperature 75 °F 70 °F 88 °F (1908)
Min Temperature 52 °F 45 °F 28 °F (1941)
Degree Days  
Heating Degree Days 1 8  
Month to date heating degree days 264 182  
Since 1 July heating degree days 1938 2107  
Cooling Degree Days 0 1  
Month to date cooling degree days 0 7  
Year to date cooling degree days 18 10  
Growing Degree Days 14 (Base 50)    
Moisture  
Dew Point 57 °F    
Average Humidity 82    
Maximum Humidity 100    
Minimum Humidity 64    
Precipitation  
Precipitation 1.08 in 0.14 in 1.58 in (1969)
Month to date precipitation 2.03 2.74  
Year to date precipitation 16.95 11.34  
Snow  
Snow 0.00 in 0.00 in 0.00 in (2002)
Month to date snowfall 0.0 0.1  
Since 1 July snowfall 0.0 0.6  
Snow Depth -    
Sea Level Pressure  
Sea Level Pressure 29.95 in    
Wind  
Wind Speed 6 mph (SSE)    
Max Wind Speed 41 mph    
Max Gust Speed 60 mph    
Visibility 7 miles    
Events Rain , Thunderstorm    
T = Trace of Precipitation, MM = Missing Value Source: NWS Daily Summary

Daily Weather History Graph

Daily Weather History Graph

Search for Another Location

Airport:

Trip Planner

Search our weather history database for the weather conditions in past years. The results will help you decide how hot, cold, wet, or windy it might be!

Date:

Astronomy

Mar. 18, 2013 Rise Set
Actual Time 7:40 AM EDT 7:44 PM EDT
Civil Twilight 7:16 AM EDT 8:09 PM EDT
Nautical Twilight 6:47 AM EDT 8:38 PM EDT
Astronomical Twilight 6:18 AM EDT 9:07 PM EDT
Moon 11:57 AM EDT (3/18) 1:25 AM EDT (3/18)
Length of Visible Light 12h 53m
Length of Day
12h 04m
Waxing Crescent, 40% of the Moon is Illuminated
Mar 18
Waxing Crescent
Mar 19
First Quarter
Mar 27
Full
Apr 3
Last Quarter
Apr 10
New

Hourly Weather History & Observations

Time (EDT) Temp. Dew Point Humidity Pressure Visibility Wind Dir Wind Speed Gust Speed Precip Events Conditions
12:53 AM 59.0 °F 55.9 °F 90% 29.99 in 10.0 mi South 4.6 mph - N/A   Clear
1:53 AM 57.0 °F 55.0 °F 93% 29.99 in 10.0 mi South 4.6 mph - N/A   Clear
2:53 AM 55.0 °F 54.0 °F 96% 29.98 in 10.0 mi Calm Calm - N/A   Clear
3:36 AM 53.6 °F 53.6 °F 100% 29.99 in 9.0 mi Calm Calm - N/A   Mostly Cloudy
3:53 AM 54.0 °F 54.0 °F 100% 30.00 in 7.0 mi Calm Calm - N/A   Overcast
4:31 AM 55.4 °F 55.4 °F 100% 29.99 in 9.0 mi SE 3.5 mph - N/A   Overcast
4:42 AM 55.4 °F 55.4 °F 100% 29.98 in 7.0 mi South 4.6 mph - N/A   Overcast
4:53 AM 55.9 °F 55.0 °F 97% 29.98 in 7.0 mi South 3.5 mph - N/A   Overcast
5:53 AM 57.0 °F 55.9 °F 96% 29.97 in 5.0 mi Calm Calm - N/A   Overcast
6:53 AM 57.0 °F 55.9 °F 96% 30.00 in 3.0 mi Calm Calm - N/A   Overcast
7:53 AM 57.0 °F 57.0 °F 100% 30.01 in 4.0 mi Calm Calm - N/A   Overcast
8:18 AM 57.2 °F 57.2 °F 100% 30.02 in 2.5 mi South 3.5 mph - N/A   Overcast
8:26 AM 57.2 °F 57.2 °F 100% 30.02 in 3.0 mi South 4.6 mph - N/A   Overcast
8:38 AM 57.2 °F 57.2 °F 100% 30.03 in 4.0 mi Calm Calm - N/A   Overcast
8:53 AM 57.9 °F 57.0 °F 97% 30.03 in 4.0 mi Calm Calm - N/A   Overcast
9:53 AM 59.0 °F 57.9 °F 96% 30.02 in 6.0 mi SE 4.6 mph - N/A   Overcast
10:07 AM 60.8 °F 57.2 °F 88% 30.02 in 6.0 mi SE 5.8 mph - N/A   Overcast
10:30 AM 60.8 °F 57.2 °F 88% 30.01 in 7.0 mi SE 4.6 mph - N/A   Overcast
10:48 AM 60.8 °F 57.2 °F 88% 30.01 in 10.0 mi Variable 3.5 mph - N/A   Overcast
10:53 AM 62.1 °F 57.9 °F 86% 30.00 in 10.0 mi South 5.8 mph - N/A   Overcast
11:07 AM 62.6 °F 57.2 °F 82% 30.00 in 10.0 mi South 8.1 mph - N/A   Overcast
11:53 AM 64.0 °F 57.9 °F 80% 29.99 in 10.0 mi South 6.9 mph - N/A   Overcast
12:53 PM 64.9 °F 59.0 °F 81% 29.96 in 10.0 mi South 9.2 mph 18.4 mph N/A   Overcast
1:53 PM 66.0 °F 60.1 °F 81% 29.93 in 10.0 mi South 8.1 mph - N/A   Overcast
2:53 PM 66.9 °F 61.0 °F 81% 29.91 in 10.0 mi South 6.9 mph - N/A   Overcast
3:43 PM 69.8 °F 62.6 °F 78% 29.86 in 10.0 mi SSE 10.4 mph - N/A   Overcast
3:53 PM 70.0 °F 62.1 °F 76% 29.85 in 10.0 mi South 10.4 mph - N/A   Overcast
4:53 PM 73.0 °F 62.1 °F 68% 29.83 in 10.0 mi South 8.1 mph 18.4 mph N/A   Overcast
5:53 PM 73.0 °F 61.0 °F 66% 29.80 in 10.0 mi SSW 15.0 mph 19.6 mph N/A   Partly Cloudy
6:53 PM 71.1 °F 62.1 °F 73% 29.76 in 10.0 mi South 11.5 mph 19.6 mph N/A   Clear
7:33 PM 69.8 °F 62.6 °F 78% 29.78 in 10.0 mi SSE 6.9 mph - N/A Thunderstorm Thunderstorm
7:44 PM 64.4 °F 59.0 °F 83% 29.91 in 2.5 mi NNW 35.7 mph 59.8 mph 0.00 in Rain , Thunderstorm Light Thunderstorms and Rain
7:50 PM 53.6 °F 51.8 °F 94% 29.93 in 0.8 mi North 23.0 mph 59.8 mph 0.24 in Rain , Thunderstorm Heavy Thunderstorms and Rain
7:51 PM 53.1 °F 52.0 °F 96% 29.93 in 0.8 mi NNE 23.0 mph 59.8 mph 0.28 in Rain , Thunderstorm Heavy Thunderstorms and Rain
7:53 PM 53.6 °F 51.8 °F 94% 29.93 in 0.8 mi NNE 25.3 mph 52.9 mph 0.04 in Rain , Thunderstorm Heavy Thunderstorms and Rain
7:55 PM 53.6 °F 51.8 °F 94% 29.92 in 1.0 mi North 21.9 mph 34.5 mph 0.07 in Rain Heavy Rain
8:06 PM 53.6 °F 53.6 °F 100% 29.93 in 2.5 mi North 13.8 mph 20.7 mph 0.32 in Rain Heavy Rain
8:24 PM 55.4 °F 53.6 °F 94% 29.88 in 4.0 mi North 11.5 mph 25.3 mph 0.49 in Rain Rain
8:53 PM 55.9 °F 54.0 °F 93% 29.91 in 8.0 mi NNW 5.8 mph - 0.52 in Rain Light Rain
9:53 PM 55.0 °F 55.0 °F 100% 29.88 in 5.0 mi South 10.4 mph - 0.20 in Rain Rain
10:53 PM 55.0 °F 55.0 °F 100% 29.89 in 10.0 mi NE 11.5 mph - 0.08 in Rain Light Rain
11:53 PM 55.0 °F 55.0 °F 100% 29.91 in 10.0 mi South 3.5 mph - 0.00 in   Clear